Regional Weather Roundup
Issued by NWS Cleveland, OH

Home | Current Version | Previous Version | Graphics & Text | Print | Product List | Glossary On
Versions: 1 2 3 4 5 6 7 8 9 10 11 12 13 14 15 16 17 18 19 20 21 22 23 24 25 26 27 28 29 30 31 32 33 34 35 36 37 38 39 40 41 42 43 44 45 46 47 48 49 50
000
ASUS41 KCLE 191802
RWRCLE
OHIO REGIONAL WEATHER ROUNDUP
NATIONAL WEATHER SERVICE CLEVELAND, OH
200 PM EDT THU OCT 19 2017

NOTE: "FAIR" INDICATES FEW OR NO CLOUDS BELOW 12,000 FEET WITH NO
SIGNIFICANT WEATHER AND/OR OBSTRUCTIONS TO VISIBILITY.

OHZ001>008-015>018-024>027-034-035-043-044-191900-
   NORTHWEST OHIO

CITY           SKY/WX    TMP DP  RH WIND       PRES   REMARKS
DEFIANCE       FAIR      68  49  50 NW8       30.16F
FINDLAY        FAIR      72  49  44 W14       30.15S
TOLEDO EXPRESS FAIR      69  51  52 W10       30.14F
TOLEDO EXEC    FAIR      69  51  52 W10       30.14F
LIMA           FAIR      70  50  49 W12       30.16F
$$

OHZ009>014-019>023-028>033-038-089-191900-
   NORTHEAST OHIO

CITY           SKY/WX    TMP DP  RH WIND       PRES   REMARKS
CLE-HOPKINS    FAIR      72  50  45 W14       30.15F
CLE-LAKEFRONT  FAIR      67  54  63 W9        30.12F
CUY CO. ARPT   MOSUNNY   70  50  49 W12       30.14F
LORAIN-ELYRIA  FAIR      70  45  40 W10       30.15F
ASHTABULA      FAIR      69  48  47 W14G20    30.13F
AKRON-CANTON   FAIR      70  49  47 SW16      30.16F
WOOSTER        FAIR      71  49  45 SW10      30.16F
MANSFIELD      FAIR      71  49  45 SW10      30.17F
YOUNGSTOWN     PTSUNNY   69  48  47 SW13G20   30.14F
$$

OHZ042-051>053-060>062-070>072-077>081-191900-
  SOUTHWEST OHIO

CITY           SKY/WX    TMP DP  RH WIND       PRES   REMARKS
CINC-COVINGTON FAIR      70  52  52 SW12G17   30.22F
CINC-LUNKEN    FAIR      71  52  50 S12       30.22F
HAMILTON       FAIR      73  52  47 VRB6      30.22F
DAYTON         FAIR      71  52  50 SW12      30.20F
WRIGHT-PAT AFB FAIR      70  49  48 SW12      30.20F
DAYTON GENERAL FAIR      69  50  50 SW9       30.20F
WILMINGTON     FAIR      69  51  52 SW14      30.21F
$$

OHZ036-037-039>041-045>050-054>059-063>069-073>076-082>088-191900-
  CENTRAL AND SOUTHEAST OHIO

CITY           SKY/WX    TMP DP  RH WIND       PRES   REMARKS
COLUMBUS       FAIR      71  50  47 S12G20    30.19F
OSU AIRPORT    FAIR      71  52  50 SW14      30.19F
BOLTON FIELD   SUNNY     72  52  49 SW12      30.20F
RICKENBACK AFB FAIR      71  50  47 SW13G20   30.20F
NEWARK         FAIR      71  47  42 SW12      30.20F
MARION         FAIR      72  47  40 W14       30.17F
LANCASTER      FAIR      69  51  52 SW9       30.21F
ZANESVILLE     FAIR      70  49  47 SW10      30.21F
NEW PHILLY     NOT AVBL
$$




USA.gov is the U.S. government's official web portal to all federal, state and local government web resources and services.